{"data":{"norad_id":54857,"intl_designator":"2022-177AP","name":"STARLINK-5078","alt_names":[],"object_type":"PAYLOAD","status":"ACTIVE","operator":null,"country":"US","launch_date":"2022-12-28","launch_site_code":"AFETR","launch_vehicle":null,"mission":null,"orbit_class":"UNKNOWN","rcs_meters":null,"size_class":null,"mass_kg":null,"dimensions":null,"purposes":["comms"],"wikipedia_slug":null,"has_3d_model":false,"image_url":null,"decayed_at":null,"tle_current":{"epoch":"2026-09-19T23:11:46.115808Z","epoch_age_seconds":139451,"freshness":"FRESH","line1":"1 54857U 22177AP  26262.96650597  .00001058  00000+0  47990-4 0  9999","line2":"2 54857  43.0032 104.3323 0001542 269.0980  90.9695 15.27576422206800","mean_motion":15.27576422,"eccentricity":0.0001542,"inclination_deg":43.0032,"raan_deg":104.3323,"arg_perigee_deg":269.098,"mean_anomaly_deg":90.9695,"bstar":4.799e-5,"rev_number":20680,"period_min":94.26696951205,"perigee_km":482.00181333166,"apogee_km":484.11780642783,"semimajor_km":6861.1968098797,"source":"CELESTRAK","updated_at":"2026-09-21T09:00:33.159043Z"}}}